TimeCDT,TemperatureF,Dew PointF,Humidity,Sea Level PressureIn,VisibilityMPH,Wind Direction,Wind SpeedMPH,Gust SpeedMPH,PrecipitationIn,Events,Conditions,WindDirDegrees,DateUTC
12:18 AM,46.0,35.2,66,29.95,10.0,South,17.3,25.3,N/A,,Clear,190,2013-03-30 05:18:00
12:37 AM,46.4,34.7,64,29.94,10.0,South,17.3,21.9,N/A,Thunderstorm,Clear,190,2013-03-30 05:37:00
12:57 AM,45.5,34.3,65,29.93,10.0,SSW,16.1,24.2,N/A,Thunderstorm,Clear,200,2013-03-30 05:57:00
1:18 AM,45.0,34.0,65,29.92,10.0,SSW,17.3,21.9,N/A,Thunderstorm,Clear,200,2013-03-30 06:18:00
1:38 AM,44.8,34.0,66,29.91,10.0,SSW,18.4,24.2,N/A,,Clear,200,2013-03-30 06:38:00
1:57 AM,45.1,34.3,66,29.90,10.0,SSW,18.4,24.2,N/A,,Clear,210,2013-03-30 06:57:00
2:18 AM,45.3,35.6,69,29.90,10.0,SSW,18.4,26.5,N/A,,Clear,210,2013-03-30 07:18:00
2:38 AM,44.6,36.3,73,29.90,10.0,SSW,19.6,24.2,N/A,,Clear,210,2013-03-30 07:38:00
2:58 AM,45.1,37.4,74,29.89,10.0,SW,19.6,25.3,N/A,,Clear,220,2013-03-30 07:58:00
3:17 AM,45.1,37.8,75,29.89,10.0,SW,20.7,25.3,N/A,,Scattered Clouds,220,2013-03-30 08:17:00
3:37 AM,45.9,39.2,78,29.89,10.0,SW,20.7,-,N/A,,Scattered Clouds,220,2013-03-30 08:37:00
3:57 AM,45.7,39.2,78,29.88,10.0,SW,20.7,25.3,N/A,,Scattered Clouds,220,2013-03-30 08:57:00
4:17 AM,46.4,40.1,79,29.88,10.0,SW,20.7,24.2,N/A,,Clear,220,2013-03-30 09:17:00
4:37 AM,46.6,40.6,80,29.88,10.0,SW,21.9,25.3,N/A,,Clear,220,2013-03-30 09:37:00
4:58 AM,47.3,41.4,80,29.87,10.0,SW,19.6,26.5,N/A,,Scattered Clouds,220,2013-03-30 09:58:00
5:18 AM,46.4,41.0,81,29.88,10.0,SW,19.6,25.3,N/A,,Scattered Clouds,220,2013-03-30 10:18:00
5:38 AM,46.4,41.0,81,29.88,10.0,SW,16.1,21.9,N/A,,Clear,220,2013-03-30 10:38:00
5:57 AM,46.0,41.2,83,29.87,10.0,SW,20.7,-,N/A,,Scattered Clouds,220,2013-03-30 10:57:00
6:17 AM,46.0,40.8,82,29.87,10.0,SW,21.9,29.9,N/A,,Scattered Clouds,220,2013-03-30 11:17:00
6:37 AM,46.2,40.8,81,29.88,10.0,SW,17.3,28.8,N/A,,Mostly Cloudy,230,2013-03-30 11:37:00
6:57 AM,45.7,41.0,84,29.90,10.0,WSW,8.1,-,N/A,,Overcast,250,2013-03-30 11:57:00
7:18 AM,46.0,41.4,84,29.89,10.0,SW,17.3,25.3,N/A,,Overcast,230,2013-03-30 12:18:00
7:38 AM,45.7,41.9,87,29.90,10.0,WSW,13.8,19.6,N/A,,Mostly Cloudy,240,2013-03-30 12:38:00
7:57 AM,45.0,41.4,87,29.91,10.0,West,4.6,-,N/A,,Overcast,270,2013-03-30 12:57:00
8:18 AM,44.6,41.0,87,29.92,10.0,West,6.9,-,N/A,,Overcast,260,2013-03-30 13:18:00
8:38 AM,45.0,41.2,87,29.92,10.0,West,6.9,-,N/A,,Overcast,270,2013-03-30 13:38:00
8:58 AM,44.8,41.0,87,29.92,10.0,WNW,5.8,-,N/A,,Overcast,290,2013-03-30 13:58:00
9:17 AM,44.2,39.7,84,29.94,7.0,NW,16.1,20.7,N/A,,Overcast,320,2013-03-30 14:17:00
9:37 AM,42.6,37.9,83,29.94,7.0,NW,11.5,-,N/A,,Mostly Cloudy,320,2013-03-30 14:37:00
9:57 AM,41.7,37.4,85,29.95,5.0,NNW,15.0,-,N/A,,Scattered Clouds,330,2013-03-30 14:57:00
10:17 AM,40.6,37.2,88,29.95,4.0,NW,12.7,-,N/A,,Overcast,320,2013-03-30 15:17:00
10:38 AM,38.5,36.3,92,29.95,1.8,NNW,13.8,-,N/A,,Overcast,330,2013-03-30 15:38:00
10:58 AM,38.5,36.5,93,29.95,1.5,NNW,16.1,-,N/A,,Overcast,330,2013-03-30 15:58:00
11:17 AM,39.4,37.2,92,29.95,2.0,NW,15.0,-,N/A,,Overcast,320,2013-03-30 16:17:00
11:38 AM,39.2,36.9,91,29.95,1.8,NNW,12.7,-,N/A,,Overcast,330,2013-03-30 16:38:00
11:58 AM,40.5,37.6,89,29.95,2.0,NNW,13.8,-,N/A,,Overcast,330,2013-03-30 16:58:00
12:17 PM,42.1,39.0,89,29.95,2.5,NNW,11.5,-,N/A,,Overcast,330,2013-03-30 17:17:00
12:37 PM,45.1,40.6,84,29.95,3.0,NW,10.4,-,N/A,,Mostly Cloudy,310,2013-03-30 17:37:00
12:57 PM,47.1,41.5,81,29.94,4.0,NW,10.4,-,N/A,,Haze,320,2013-03-30 17:57:00
1:17 PM,48.9,42.6,79,29.94,5.0,NNW,9.2,-,N/A,,Haze,330,2013-03-30 18:17:00
1:38 PM,50.0,42.8,76,29.94,7.0,NNW,12.7,-,N/A,,Clear,330,2013-03-30 18:38:00
1:58 PM,50.9,42.8,74,29.93,7.0,NNW,11.5,16.1,N/A,,Scattered Clouds,340,2013-03-30 18:58:00
2:18 PM,50.9,42.3,72,29.93,10.0,NW,13.8,-,N/A,,Scattered Clouds,320,2013-03-30 19:18:00
2:38 PM,50.9,41.5,70,29.92,10.0,NNW,11.5,-,N/A,,Clear,330,2013-03-30 19:38:00
2:58 PM,50.9,41.5,70,29.92,10.0,NW,11.5,-,N/A,,Clear,320,2013-03-30 19:58:00
3:18 PM,51.1,42.3,72,29.92,10.0,NNW,13.8,18.4,N/A,,Scattered Clouds,330,2013-03-30 20:18:00
3:38 PM,50.7,41.7,71,29.92,10.0,NW,15.0,18.4,N/A,,Scattered Clouds,320,2013-03-30 20:38:00
3:57 PM,51.1,41.9,71,29.92,10.0,NNW,10.4,-,N/A,,Scattered Clouds,340,2013-03-30 20:57:00
4:17 PM,50.4,42.3,74,29.92,10.0,NNW,12.7,-,N/A,,Mostly Cloudy,340,2013-03-30 21:17:00
4:38 PM,50.0,42.3,75,29.92,10.0,NW,11.5,-,N/A,,Scattered Clouds,320,2013-03-30 21:38:00
4:57 PM,49.8,42.1,75,29.92,10.0,NNW,11.5,-,N/A,,Mostly Cloudy,330,2013-03-30 21:57:00
5:18 PM,49.1,41.4,75,29.92,10.0,NNW,13.8,19.6,N/A,,Mostly Cloudy,330,2013-03-30 22:18:00
5:38 PM,47.3,41.4,80,29.92,7.0,North,15.0,-,N/A,,Mostly Cloudy,350,2013-03-30 22:38:00
5:57 PM,45.9,40.5,81,29.92,7.0,North,11.5,-,N/A,,Mostly Cloudy,350,2013-03-30 22:57:00
6:17 PM,44.8,39.7,82,29.92,5.0,North,11.5,-,N/A,,Haze,350,2013-03-30 23:17:00
6:38 PM,44.1,39.2,83,29.92,5.0,NNW,13.8,-,N/A,,Haze,330,2013-03-30 23:38:00
6:58 PM,43.2,38.7,84,29.92,5.0,NNW,9.2,-,N/A,,Scattered Clouds,340,2013-03-30 23:58:00
7:18 PM,41.9,37.6,85,29.92,4.0,NNW,10.4,-,N/A,,Scattered Clouds,340,2013-03-31 00:18:00
7:37 PM,40.6,37.0,87,29.92,4.0,NNW,9.2,-,N/A,,Scattered Clouds,330,2013-03-31 00:37:00
7:57 PM,39.4,36.1,88,29.92,4.0,NNW,8.1,-,N/A,,Clear,330,2013-03-31 00:57:00
8:18 PM,38.3,35.6,90,29.92,4.0,NW,8.1,-,N/A,,Clear,320,2013-03-31 01:18:00
8:38 PM,36.5,34.2,91,29.94,3.0,NW,6.9,-,N/A,,Clear,320,2013-03-31 01:38:00
8:58 PM,36.1,34.2,93,29.94,3.0,NW,6.9,-,N/A,,Clear,320,2013-03-31 01:58:00
9:18 PM,35.6,33.6,92,29.94,3.0,NW,6.9,-,N/A,,Clear,320,2013-03-31 02:18:00
9:38 PM,34.0,32.4,94,29.94,2.5,Calm,Calm,-,N/A,,Clear,0,2013-03-31 02:38:00
9:58 PM,32.9,32.0,96,29.94,2.0,Calm,Calm,-,N/A,,Clear,0,2013-03-31 02:58:00
10:18 PM,33.8,32.5,95,29.94,2.5,Calm,Calm,-,N/A,,Clear,0,2013-03-31 03:18:00
10:37 PM,33.8,32.4,94,29.94,2.5,Calm,Calm,-,N/A,,Clear,0,2013-03-31 03:37:00
10:57 PM,32.9,32.0,96,29.93,2.0,Calm,Calm,-,N/A,,Clear,0,2013-03-31 03:57:00
11:18 PM,32.9,32.0,96,29.92,3.0,Calm,Calm,-,N/A,,Clear,0,2013-03-31 04:18:00
11:37 PM,32.0,30.9,96,29.93,3.0,Calm,Calm,-,N/A,,Clear,0,2013-03-31 04:37:00
11:58 PM,31.1,30.0,96,29.92,2.5,West,4.6,-,N/A,,Clear,280,2013-03-31 04:58:00